K5RNB Weather Reports


time (UTC)temp
F
wind
direction
speed
knots
gust
knots
rain 1hr
in
rain 24hr
in
rain mn
in
humidity
%
barometer
mb
20260906220959 100 188 4.3 10.4 0.00 0.00 0.00 40 1008.8
20260906220458 99 103 7.0 12.2 0.00 0.00 0.00 41 1008.9
20260906215958 99 175 6.1 15.6 0.00 0.00 0.00 41 1008.9
20260906215459 99 116 9.6 17.4 0.00 0.00 0.00 42 1008.8
20260906214458 100 121 1.7 13.0 0.00 0.00 0.00 41 1008.9
20260906213959 100 159 5.2 13.0 0.00 0.00 0.00 40 1009.1
20260906213459 100 116 5.2 12.2 0.00 0.00 0.00 40 1009.1
20260906212959 100 111 5.2 13.0 0.00 0.00 0.00 41 1009.1
20260906211959 99 148 8.7 14.8 0.00 0.00 0.00 42 1009.2
20260906211501 99 170 5.2 17.4 0.00 0.00 0.00 42 1009.4
20260906210459 99 120 7.8 11.3 0.00 0.00 0.00 42 1009.4
20260906205959 100 131 7.8 17.4 0.00 0.00 0.00 41 1009.6
20260906205459 100 90 4.3 17.4 0.00 0.00 0.00 42 1009.7
20260906204959 100 122 7.0 14.8 0.00 0.00 0.00 41 1009.7
20260906204459 100 110 6.1 17.4 0.00 0.00 0.00 42 1009.8
20260906203959 99 113 7.0 17.4 0.00 0.00 0.00 41 1009.9
20260906203459 99 154 6.1 13.9 0.00 0.00 0.00 43 1009.9
20260906202959 99 166 5.2 13.9 0.00 0.00 0.00 42 1010.0
20260906202459 99 134 7.8 15.6 0.00 0.00 0.00 41 1010.0
20260906201959 99 112 9.6 15.6 0.00 0.00 0.00 41 1010.2
20260906201459 99 141 5.2 13.0 0.00 0.00 0.00 43 1010.1
20260906200959 99 102 6.1 13.0 0.00 0.00 0.00 43 1010.2
20260906200459 99 181 7.8 12.2 0.00 0.00 0.00 43 1010.3
20260906200003 98 124 6.1 12.2 0.00 0.00 0.00 45 1010.3
20260906030406 88 166 5.2 10.4 0.00 0.00 0.00 62 1010.6
20260906025906 89 163 5.2 7.8 0.00 0.00 0.00 60 1010.5
20260906025406 89 154 5.2 8.7 0.00 0.00 0.00 59 1010.5
20260906024906 89 144 4.3 11.3 0.00 0.00 0.00 59 1010.4
20260906024406 89 147 6.1 11.3 0.00 0.00 0.00 59 1010.4
20260906023906 89 149 6.1 10.4 0.00 0.00 0.00 59 1010.2
20260906023407 89 147 6.1 10.4 0.00 0.00 0.00 58 1010.2
20260906022906 89 152 5.2 8.7 0.00 0.00 0.00 58 1010.0
20260906022406 89 152 4.3 6.1 0.00 0.00 0.00 56 1009.9
20260906021906 89 147 4.3 6.1 0.00 0.00 0.00 55 1009.8
20260906021406 89 133 4.3 6.1 0.00 0.00 0.00 54 1009.7
20260906020906 89 139 2.6 5.2 0.00 0.00 0.00 54 1009.6
20260906020407 90 151 1.7 2.6 0.00 0.00 0.00 53 1009.6
20260906015906 90 145 0.0 0.9 0.00 0.00 0.00 53 1009.5
20260906015406 90 145 0.0 0.9 0.00 0.00 0.00 53 1009.5
20260906014907 91 145 0.0 0.9 0.00 0.00 0.00 54 1009.4
20260906014406 91 145 0.0 0.9 0.00 0.00 0.00 54 1009.3
20260906013907 92 145 0.0 0.9 0.00 0.00 0.00 52 1009.3
20260906013406 92 145 0.0 0.9 0.00 0.00 0.00 51 1009.1
20260906012906 92 145 0.0 0.9 0.00 0.00 0.00 51 1009.1
20260906012406 93 145 0.0 1.7 0.00 0.00 0.00 51 1009.0
20260906011906 93 145 0.0 1.7 0.00 0.00 0.00 49 1009.0
20260906011406 93 145 0.9 2.6 0.00 0.00 0.00 48 1009.0
20260906010907 93 97 0.0 2.6 0.00 0.00 0.00 48 1008.9
20260906010406 94 139 1.7 2.6 0.00 0.00 0.00 48 1008.8
20260906005906 94 124 1.7 2.6 0.00 0.00 0.00 47 1008.8
20260906005409 95 138 1.7 2.6 0.00 0.00 0.00 46 1008.8
20260906004907 95 137 0.9 5.2 0.00 0.00 0.00 45 1008.8
20260906004406 96 113 2.6 5.2 0.00 0.00 0.00 44 1008.8
20260906003906 96 115 2.6 5.2 0.00 0.00 0.00 44 1008.8
20260906003406 96 140 2.6 6.1 0.00 0.00 0.00 44 1008.8
20260906002907 96 119 2.6 6.1 0.00 0.00 0.00 44 1008.7
20260906002407 96 147 3.5 6.1 0.00 0.00 0.00 44 1008.7
20260906001406 96 172 2.6 6.1 0.00 0.00 0.00 43 1008.7
20260906000907 97 163 4.3 7.8 0.00 0.00 0.00 43 1008.7
20260906000407 97 153 5.2 7.8 0.00 0.00 0.00 43 1008.7
20260905235407 98 185 3.5 5.2 0.00 0.00 0.00 42 1008.6
20260905234406 98 166 2.6 7.8 0.00 0.00 0.00 43 1008.5
20260905233908 98 145 2.6 7.8 0.00 0.00 0.00 43 1008.5
20260905233407 98 182 5.2 7.8 0.00 0.00 0.00 43 1008.5
20260905232907 98 175 2.6 12.2 0.00 0.00 0.00 43 1008.5
20260905232407 98 177 7.0 12.2 0.00 0.00 0.00 42 1008.6
20260905231907 98 161 6.1 11.3 0.00 0.00 0.00 43 1008.5
20260905231407 98 196 7.8 11.3 0.00 0.00 0.00 43 1008.6
20260905230407 98 182 7.8 12.2 0.00 0.00 0.00 42 1008.6
20260905225907 98 147 1.7 7.8 0.00 0.00 0.00 42 1008.6
20260905225407 98 164 5.2 8.7 0.00 0.00 0.00 42 1008.5
20260905224907 98 174 5.2 10.4 0.00 0.00 0.00 43 1008.6
20260905224407 98 186 7.8 10.4 0.00 0.00 0.00 43 1008.5
20260905223907 98 217 7.0 10.4 0.00 0.00 0.00 43 1008.5
20260905223407 98 197 6.1 13.0 0.00 0.00 0.00 43 1008.5
20260905222407 98 198 6.1 13.0 0.00 0.00 0.00 43 1008.5
20260905221908 98 184 8.7 13.0 0.00 0.00 0.00 42 1008.5
20260905221408 99 171 6.1 10.4 0.00 0.00 0.00 42 1008.5